[[{"header":{"parameterUnit":"m.s-1","parameterCategory":1,"la1":30.2992,"la2":30.254,"lo1":-89.0895,"lo2":-89.0443,"dy":0.0025,"dx":0.0025,"nx":19,"ny":19,"refTime":"2026-05-15T21:00:00:Z","depth":0,"parameterNumber":2,"parameterNumberName":"U-component_of_WINDS"},"data":[0,0,0,-1.0467,-1.0469,-1.0559,-1.0559,-1.0669,-1.067,0,0,0,0,0,0,0,0,0,0,0,-1.0435,-1.0436,-1.0467,-1.0469,-1.0559,-1.0559,-1.0669,-1.067,0,0,0,0,0,0,0,0,0,0,0,-1.0435,-1.0435,-1.0436,-1.0469,-1.0559,-1.0559,-1.0669,-1.0603,0,0,0,0,0,0,0,0,0,0,-1.0517,-1.0482,-1.0435,-1.0436,-1.047,-1.0559,-1.0559,-1.06,-1.0607,-1.0625,0,-1.0638,0,-1.0655,-1.0677,-1.0677,0,0,0,-1.0474,-1.0476,-1.0504,-1.0436,-1.0471,-1.0558,-1.052,-1.0604,-1.0612,-1.0635,-1.064,-1.0644,-1.0657,-1.0677,-1.0678,-1.0763,-1.0763,0,0,-1.0469,-1.0449,-1.0499,-1.0509,-1.0493,-1.0517,-1.0522,-1.0609,-1.0614,-1.064,-1.0647,-1.0659,-1.0678,-1.0679,-1.0763,-1.0763,0,0,0,-1.0451,-1.0445,-1.0472,-1.0505,-1.0521,-1.0519,-1.0526,-1.061,-1.0621,-1.0648,-1.066,-1.0679,-1.068,-1.0762,-1.0763,-1.0752,0,0,0,-1.0449,-1.0435,-1.047,-1.0459,-1.0519,-1.0566,-1.0525,-1.0614,-1.0625,-1.066,-1.0679,-1.0681,-1.0762,-1.0762,-1.0752,-1.0751,0,0,0,-1.0431,-1.0433,-1.0444,-1.0457,-1.0495,-1.0565,-1.0581,-1.0617,-1.0632,-1.0677,-1.0681,-1.0762,-1.0762,-1.0752,-1.0751,-1.0768,0,0,0,-1.0407,-1.0434,-1.0444,-1.0478,-1.0494,-1.0557,-1.058,-1.0629,-1.0666,-1.0679,-1.0762,-1.0763,-1.0752,-1.0751,-1.0768,-1.0779,-1.0782,0,0,-1.043,-1.0436,-1.0458,-1.0469,-1.0525,-1.0545,-1.0601,-1.0655,-1.0678,-1.0734,-1.0736,-1.0752,-1.0751,-1.0768,-1.0802,-1.0804,0,0,0,-1.0459,-1.0474,-1.0494,-1.0527,-1.0567,-1.0603,-1.065,-1.067,-1.0718,-1.0702,-1.0763,-1.0763,-1.0774,-1.0781,-1.0782,-1.0794,-1.0764,-1.0764,-1.0764,-1.0463,-1.049,-1.0529,-1.0567,-1.06,-1.0648,-1.0677,-1.0713,-1.0732,-1.0746,-1.0763,-1.078,-1.0787,-1.0788,-1.0799,-1.077,-1.077,-1.077,-1.077,-1.0499,-1.0526,-1.055,-1.0596,-1.0625,-1.0665,-1.0714,-1.0726,-1.0769,-1.0769,-1.078,-1.0779,-1.0789,-1.0801,-1.077,-1.077,-1.077,-1.077,-1.077,-1.0505,-1.0523,-1.0546,-1.0598,-1.0635,-1.0674,-1.0714,-1.074,-1.0764,-1.0775,-1.0797,-1.0797,-1.0802,-1.0784,-1.0784,-1.0784,-1.0784,-1.0784,-1.0784,-1.0503,-1.0529,-1.0559,-1.0604,-1.063,-1.0667,-1.0716,-1.0742,-1.0779,-1.0795,-1.0795,-1.0813,-1.0784,-1.0777,-1.0785,-1.0785,-1.0785,-1.0784,-1.0784,-1.0531,-1.0529,-1.0574,-1.06,-1.0656,-1.0692,-1.0724,-1.0776,-1.0802,-1.0822,-1.0838,-1.0812,-1.082,-1.0819,-1.0813,-1.083,-1.083,-1.083,-1.083,-1.0537,-1.0544,-1.0596,-1.0635,-1.0677,-1.071,-1.0763,-1.0803,-1.0843,-1.0861,-1.0863,-1.0857,-1.0855,-1.0865,-1.0863,-1.0858,-1.0886,-1.0886,-1.0886,-1.0557,-1.0569,-1.0607,-1.0645,-1.0691,-1.0731,-1.0782,-1.0828,-1.0874,-1.0889,-1.0877,-1.0874,-1.0866,-1.0861,-1.0876,-1.0872,-1.0864,0,0]},{"header":{"parameterUnit":"m.s-1","parameterCategory":1,"la1":30.2992,"la2":30.254,"lo1":-89.0895,"lo2":-89.0443,"dy":0.0025,"dx":0.0025,"nx":19,"ny":19,"refTime":"2026-05-15T21:00:00:Z","depth":0,"parameterNumber":3,"parameterNumberName":"V-component_of_WINDS"},"data":[0,0,0,4.5484,4.5486,4.5574,4.5574,4.5696,4.5698,0,0,0,0,0,0,0,0,0,0,0,4.5466,4.5467,4.5483,4.5486,4.5574,4.5574,4.5696,4.5698,0,0,0,0,0,0,0,0,0,0,0,4.5466,4.5467,4.5469,4.5486,4.5574,4.5574,4.5696,4.5625,0,0,0,0,0,0,0,0,0,0,4.5538,4.5532,4.5467,4.5469,4.5487,4.5574,4.5574,4.5622,4.563,4.5662,0,4.5694,0,4.5698,4.5707,4.5707,0,0,0,4.5479,4.5525,4.5541,4.5469,4.5488,4.5573,4.5532,4.5626,4.5635,4.5672,4.5696,4.57,4.57,4.5708,4.5708,4.5916,4.5918,0,0,4.5474,4.5487,4.5535,4.5547,4.5537,4.5529,4.5535,4.5631,4.5658,4.5696,4.5703,4.5702,4.5708,4.5709,4.5915,4.5917,0,0,0,4.5465,4.5484,4.5497,4.5542,4.5557,4.5532,4.5538,4.5653,4.5656,4.5704,4.5704,4.5709,4.5711,4.5914,4.5916,4.599,0,0,0,4.5461,4.5478,4.5495,4.5503,4.5556,4.5607,4.5558,4.565,4.566,4.5703,4.5709,4.5712,4.5912,4.5915,4.5985,4.6022,0,0,0,4.5457,4.5477,4.5493,4.5504,4.5542,4.5605,4.5614,4.5652,4.566,4.5707,4.5713,4.5911,4.5914,4.598,4.6015,4.6077,0,0,0,4.5457,4.556,4.5495,4.561,4.5542,4.5652,4.5613,4.5694,4.5744,4.571,4.5913,4.5916,4.5979,4.601,4.6073,4.613,4.6157,0,0,4.5594,4.5577,4.5644,4.5588,4.5712,4.5637,4.5772,4.5805,4.5798,4.5877,4.5882,4.5986,4.6014,4.6076,4.6304,4.6325,0,0,0,4.5691,4.5739,4.5769,4.5816,4.5844,4.5869,4.5881,4.5892,4.5958,4.5842,4.6027,4.6043,4.6079,4.6106,4.6124,4.6152,4.5929,4.5929,4.5929,4.5904,4.5888,4.5995,4.5989,4.6035,4.6044,4.6078,4.6095,4.6068,4.6111,4.6133,4.6274,4.6306,4.6319,4.6349,4.6165,4.6166,4.6166,4.6166,4.6101,4.6164,4.6121,4.621,4.6191,4.6265,4.6276,4.6253,4.6316,4.6257,4.6288,4.6221,4.6343,4.6367,4.6172,4.6171,4.617,4.6169,4.6169,4.6236,4.6262,4.6274,4.6337,4.6387,4.6377,4.6439,4.6421,4.6404,4.6435,4.6454,4.6452,4.6445,4.6446,4.6446,4.6447,4.6447,4.6447,4.6448,4.637,4.6381,4.6435,4.647,4.6495,4.6526,4.6533,4.6557,4.6578,4.6559,4.6559,4.6524,4.6359,4.6315,4.6455,4.6454,4.6453,4.6452,4.6452,4.6571,4.6521,4.6606,4.6631,4.6667,4.6715,4.6691,4.6739,4.6756,4.6786,4.6745,4.6626,4.6607,4.6593,4.6557,4.675,4.675,4.675,4.675,4.6682,4.6671,4.675,4.679,4.6827,4.6812,4.6904,4.6908,4.6906,4.6914,4.6884,4.6835,4.6822,4.6811,4.6792,4.6757,4.6998,4.6998,4.6998,4.6802,4.6793,4.6876,4.6872,4.6898,4.6919,4.7003,4.7049,4.7036,4.7008,4.6919,4.6909,4.683,4.6806,4.6775,4.6746,4.6682,0,0]}]]